| time (UTC) | temp F | wind direction | speed MPH | gust MPH | rain 1hr in | rain 24hr in | rain mn in | humidity % | barometer mb |
| 20260504174025 | 63 | 230 | 2.0 | 4.0 | 2.71 | 2.75 | 2.71 | 82 | 1004.0 |
| 20260504173044 | 64 | 184 | 2.0 | 5.0 | 0.02 | 0.06 | 0.02 | 80 | 1003.4 |
| 20260504172018 | 64 | 173 | 3.0 | 5.0 | 0.02 | 0.06 | 0.02 | 80 | 1003.7 |
| 20260504171021 | 64 | 168 | 2.0 | 3.0 | 0.02 | 0.06 | 0.02 | 81 | 1004.0 |
| 20260504151033 | 67 | 233 | 2.0 | 5.0 | 0.00 | 0.04 | 0.00 | 68 | 1005.6 |
| 20260504141022 | 69 | 185 | 3.0 | 5.0 | 0.00 | 0.04 | 0.00 | 67 | 1005.6 |
| 20260504081018 | 59 | 0.0 | 0.0 | 0.00 | 0.04 | 0.00 | 85 | 1006.6 | |
| 20260504045032 | 58 | 0.0 | 0.0 | 0.04 | 0.04 | 0.04 | 89 | 1006.5 | |
| 20260504044029 | 59 | 0.0 | 0.0 | 0.04 | 0.04 | 0.04 | 86 | 1006.2 | |
| 20260504043024 | 59 | 0.0 | 0.0 | 0.04 | 0.04 | 0.04 | 88 | 1006.8 | |
| 20260504042033 | 62 | 18 | 1.0 | 2.0 | 0.04 | 0.04 | 0.04 | 82 | 1007.5 |
| 20260504041033 | 64 | 167 | 2.0 | 3.0 | 0.04 | 0.04 | 0.04 | 73 | 1007.3 |
| 20260504040024 | 66 | 270 | 1.0 | 3.0 | 0.00 | 0.00 | 0.00 | 60 | 1006.9 |
| 20260504035024 | 66 | 158 | 0.0 | 2.0 | 0.00 | 0.00 | 0.00 | 59 | 1007.4 |
| 20260504034027 | 66 | 135 | 1.0 | 3.0 | 0.00 | 0.00 | 0.00 | 59 | 1007.4 |
| 20260504033025 | 67 | 158 | 1.0 | 2.0 | 0.00 | 0.00 | 0.00 | 58 | 1007.6 |
| 20260504032021 | 67 | 168 | 1.0 | 2.0 | 0.00 | 0.00 | 0.00 | 58 | 1007.6 |
| 20260504031024 | 67 | 0.0 | 0.0 | 0.00 | 0.00 | 0.00 | 57 | 1007.6 | |
| 20260504030017 | 68 | 180 | 0.0 | 1.0 | 0.00 | 0.00 | 0.00 | 56 | 1007.6 |
| 20260504025032 | 68 | 158 | 0.0 | 2.0 | 0.00 | 0.00 | 0.00 | 56 | 1007.6 |
| 20260504024028 | 68 | 0.0 | 2.0 | 0.00 | 0.00 | 0.00 | 56 | 1007.4 | |
| 20260504023031 | 69 | 180 | 1.0 | 3.0 | 0.00 | 0.00 | 0.00 | 56 | 1007.5 |
| 20260504022033 | 69 | 178 | 1.0 | 2.0 | 0.00 | 0.00 | 0.00 | 55 | 1007.4 |
| 20260504021034 | 69 | 0.0 | 0.0 | 0.00 | 0.00 | 0.00 | 54 | 1007.3 | |
| 20260504020031 | 69 | 338 | 0.0 | 2.0 | 0.00 | 0.00 | 0.00 | 53 | 1007.2 |
| 20260504015028 | 70 | 0.0 | 0.0 | 0.00 | 0.00 | 0.00 | 50 | 1007.0 | |
| 20260504014025 | 70 | 0.0 | 0.0 | 0.00 | 0.00 | 0.00 | 50 | 1006.8 | |
| 20260504013020 | 70 | 180 | 0.0 | 2.0 | 0.00 | 0.00 | 0.00 | 50 | 1006.7 |
| 20260504012018 | 71 | 113 | 0.0 | 2.0 | 0.00 | 0.00 | 0.00 | 48 | 1006.6 |
| 20260504011039 | 71 | 176 | 1.0 | 4.0 | 0.00 | 0.00 | 0.00 | 48 | 1006.6 |
| 20260504010026 | 72 | 232 | 1.0 | 3.0 | 0.00 | 0.00 | 0.00 | 47 | 1006.6 |
| 20260504005023 | 72 | 180 | 0.0 | 3.0 | 0.00 | 0.00 | 0.00 | 46 | 1006.6 |
| 20260504004101 | 73 | 154 | 1.0 | 4.0 | 0.00 | 0.00 | 0.00 | 46 | 1006.8 |
| 20260504003020 | 73 | 124 | 1.0 | 4.0 | 0.00 | 0.00 | 0.00 | 45 | 1006.9 |
| 20260504002034 | 74 | 158 | 1.0 | 3.0 | 0.00 | 0.00 | 0.00 | 44 | 1006.8 |
| 20260504001029 | 75 | 191 | 1.0 | 3.0 | 0.00 | 0.00 | 0.00 | 43 | 1006.8 |
| 20260504000025 | 76 | 113 | 0.0 | 2.0 | 0.00 | 0.00 | 0.00 | 42 | 1006.8 |
| 20260503235021 | 76 | 210 | 1.0 | 3.0 | 0.00 | 0.00 | 0.00 | 42 | 1006.9 |
| 20260503234017 | 76 | 145 | 2.0 | 6.0 | 0.00 | 0.00 | 0.00 | 43 | 1007.0 |
| 20260503233032 | 76 | 167 | 2.0 | 4.0 | 0.00 | 0.00 | 0.00 | 42 | 1006.9 |
| 20260503232029 | 77 | 293 | 4.0 | 9.0 | 0.00 | 0.00 | 0.00 | 40 | 1007.2 |
| 20260503231031 | 78 | 267 | 4.0 | 7.0 | 0.00 | 0.00 | 0.00 | 39 | 1007.3 |
| 20260503230030 | 78 | 231 | 3.0 | 6.0 | 0.00 | 0.00 | 0.00 | 38 | 1007.4 |
| 20260503225021 | 79 | 268 | 4.0 | 7.0 | 0.00 | 0.00 | 0.00 | 38 | 1007.6 |
| 20260503224018 | 79 | 269 | 4.0 | 7.0 | 0.00 | 0.00 | 0.00 | 38 | 1007.6 |
| 20260503223046 | 79 | 226 | 5.0 | 9.0 | 0.00 | 0.00 | 0.00 | 38 | 1007.6 |
| 20260503222022 | 78 | 227 | 4.0 | 6.0 | 0.00 | 0.00 | 0.00 | 38 | 1007.6 |
| 20260503221018 | 78 | 280 | 4.0 | 7.0 | 0.00 | 0.00 | 0.00 | 37 | 1007.6 |
| 20260503220020 | 78 | 259 | 7.0 | 13.0 | 0.00 | 0.00 | 0.00 | 36 | 1007.7 |
| 20260503215035 | 78 | 258 | 5.0 | 12.0 | 0.00 | 0.00 | 0.00 | 37 | 1007.9 |
| 20260503214031 | 78 | 221 | 3.0 | 5.0 | 0.00 | 0.00 | 0.00 | 38 | 1008.2 |
| 20260503213026 | 78 | 220 | 7.0 | 12.0 | 0.00 | 0.00 | 0.00 | 37 | 1008.3 |
| 20260503212029 | 77 | 221 | 4.0 | 8.0 | 0.00 | 0.00 | 0.00 | 39 | 1008.2 |
| 20260503211021 | 77 | 199 | 5.0 | 10.0 | 0.00 | 0.00 | 0.00 | 40 | 1008.2 |
| 20260503210018 | 76 | 181 | 5.0 | 7.0 | 0.00 | 0.00 | 0.00 | 39 | 1008.4 |
| 20260503205111 | 75 | 188 | 6.0 | 10.0 | 0.00 | 0.00 | 0.00 | 39 | 1008.5 |
| 20260503204038 | 75 | 183 | 6.0 | 8.0 | 0.00 | 0.00 | 0.00 | 39 | 1008.7 |
| 20260503203029 | 74 | 174 | 6.0 | 8.0 | 0.00 | 0.00 | 0.00 | 39 | 1009.1 |
| 20260503202029 | 74 | 173 | 5.0 | 9.0 | 0.00 | 0.00 | 0.00 | 39 | 1009.4 |
| 20260503201030 | 74 | 171 | 5.0 | 8.0 | 0.00 | 0.00 | 0.00 | 40 | 1009.6 |
| 20260503200026 | 73 | 148 | 5.0 | 12.0 | 0.00 | 0.00 | 0.00 | 41 | 1009.8 |
| 20260503195022 | 73 | 161 | 5.0 | 8.0 | 0.00 | 0.00 | 0.00 | 40 | 1010.3 |
| 20260503194018 | 72 | 159 | 5.0 | 9.0 | 0.00 | 0.00 | 0.00 | 41 | 1010.5 |
| 20260503193033 | 71 | 177 | 7.0 | 10.0 | 0.00 | 0.00 | 0.00 | 40 | 1010.8 |
| 20260503192023 | 71 | 193 | 6.0 | 11.0 | 0.00 | 0.00 | 0.00 | 42 | 1011.0 |
| 20260503191024 | 71 | 177 | 5.0 | 9.0 | 0.00 | 0.00 | 0.00 | 41 | 1011.1 |
| 20260503190040 | 70 | 191 | 6.0 | 13.0 | 0.00 | 0.00 | 0.00 | 42 | 1011.2 |
| 20260503185034 | 70 | 169 | 8.0 | 11.0 | 0.00 | 0.00 | 0.00 | 41 | 1011.6 |
| 20260503184030 | 69 | 166 | 7.0 | 11.0 | 0.00 | 0.00 | 0.00 | 41 | 1012.0 |
| 20260503183021 | 69 | 170 | 7.0 | 12.0 | 0.00 | 0.00 | 0.00 | 40 | 1012.4 |
| 20260503182017 | 69 | 178 | 6.0 | 9.0 | 0.00 | 0.00 | 0.00 | 42 | 1012.7 |
| 20260503181036 | 70 | 183 | 5.0 | 8.0 | 0.00 | 0.00 | 0.00 | 44 | 1012.9 |
| 20260503180018 | 70 | 173 | 5.0 | 9.0 | 0.00 | 0.00 | 0.00 | 44 | 1013.2 |
| 20260503175019 | 69 | 241 | 4.0 | 9.0 | 0.00 | 0.00 | 0.00 | 44 | 1013.7 |